ROMMA est une association bénévole à but non lucratif. Votre soutien est indispensable : ADHERER à ROMMA ou FAIRE un DON

Miribel-les-Echelles - (38, Isère)

Massif de la Chartreuse (760 m)   Longitude: 05° 41' 54'' E   Latitude: 45° 26' 40'' N Station partenaire n°22
 

Détail journalier du     <<     >>

Température Precipitation Humidité Pression Vent Dir Rafale Dir. rafale Ensol.
Heure (°C) (mm) (%) (hPa) (km/h) (km/h) (min)
01:00 11.94.29610134ESE16O0
02:00 10.94.49510136SSO23OSO0
03:00 10.42.69410136SSE18SO0
04:00 10.409210095E19SE0
05:00 10.908510109ESE26SO0
06:00 10.308810108SO23OSO0
07:00 8.8091101108S0
08:00 8.609510111O8SO0
09:00 10.409510122ENE11OSO0
10:00 11.2095101205NE0
11:00 10.9095101308SE0
12:00 11.309510141SSE11OSO0
13:00 11.909410142S16SO0
14:00 12.309310143ESE16S0
15:00 11.909410142E6ESE0
16:00 12.209310142ENE6ENE0
17:00 12.309110142ESE5ENE0
18:00 12.609010151ESE5ESE60
19:00 12.10911016000
20:00 11.3091101605O0
21:00 10.209210171O5O0
22:00 9.609210181OSO6OSO0
23:00 9.809210182OSO6O0
minuit 9.109010191O10O0

Graphique du 24-10-2019

 

Serveur OMMA